• Join FlightAware (Why Join?)
  • Login
  • US Flag 
08:37AM EDT


 

Airport Tracker/Info


-or-


 

Live Flight TrackerFlight Track Log ✈ AWI3875 ✈ 26-Sep-2013 ✈ KDCA - KORF

Flight Track Log - Related Links

Times and Time Zones

All times are in EDT time to prevent confusion due to time zone crossing. See the AWI3875 flight status page for this flight to view local times or setup timezone preferences in your user account.

Time Position Orientation Groundspeed Altitude Reporting Facility
EDT Latitude Longitude Course Direction KTS MPH feet Rate Location/Type
08:32PM 38.8833 -77.0500 183° South 162 186 1,400  Level Potomac TRACON
08:32PM 38.9167 -77.1000 311° West 240 276 2,800 2,280 Climbing Potomac TRACON
08:35PM 39.0125 -77.0903 North 158 182 8,400 2,400 Climbing Washington Center
08:36PM 38.9489 -77.0117 136° Southeast 154 177 10,500 1,560 Climbing Washington Center
08:37PM 38.4186 -76.8484 183° South  Level Estimated
08:37PM 38.8681 -76.9514 150° Southeast 250 288 11,600  Level Washington Center
08:38PM 38.7792 -76.8886 151° Southeast 298 343 13,400 1,200 Climbing Washington Center
08:39PM 38.6861 -76.8203 150° Southeast 340 391 14,000 240 Climbing Washington Center
08:40PM 38.5889 -76.7497 150° Southeast 381 438 14,000  Level Washington Center
08:41PM 38.4869 -76.7189 167° South 386 444 14,000  Level Washington Center
08:42PM 38.3828 -76.7042 174° South 386 444 14,000  Level Washington Center
08:43PM 38.2933 -76.6922 174° South 381 438 14,000  Level Washington Center
08:44PM 38.1914 -76.6750 172° South 376 433 14,000  Level Washington Center
08:45PM 38.0892 -76.6656 176° South 371 427 14,000  Level Washington Center
08:46PM 37.9889 -76.6719 183° South 364 419 14,000  Level Washington Center
08:47PM 37.8867 -76.6783 183° South 364 419 14,000  Level Washington Center
08:48PM 37.8058 -76.6194 150° Southeast 334 384 14,000  Level Washington Center
08:48PM 37.7439 -76.5397 134° Southeast 350 403 14,100  Climbing Washington Center
08:49PM 37.7400 -76.5292 115° Southeast 330 380 14,000 -780 Descending Washington Center
08:49PM 37.6819 -76.4578 136° Southeast 354 407 13,400 -720 Descending Washington Center
08:50PM 37.6717 -76.4392 125° Southeast 340 391 13,300 -1,620 Descending Washington Center
08:50PM 37.6139 -76.3625 134° Southeast 366 421 11,800 -1,620 Descending Washington Center
08:51PM 37.6014 -76.3519 146° Southeast 353 406 11,700 -1,740 Descending Washington Center
08:51PM 37.5139 -76.3328 170° South 373 429 10,100 -1,620 Descending Washington Center
08:52PM 37.4994 -76.3247 156° South 347 399 10,100 -120 Level Washington Center
08:52PM 37.4036 -76.3081 172° South 374 430 10,000 -120 Descending Washington Center
08:53PM 37.3972 -76.3056 163° South 359 413 10,000 60 Level Washington Center
08:53PM 37.3014 -76.2889 172° South 371 427 10,100  Climbing Washington Center
08:54PM 37.2953 -76.2836 146° Southeast 371 427 10,000 -120 Descending Washington Center
08:54PM 37.2056 -76.2697 173° South 342 394 10,000 -120 Level Washington Center
08:55PM 37.1994 -76.2644 145° Southeast 366 421 9,900 -1,740 Descending Washington Center
08:55PM 37.1219 -76.2794 189° South 297 342 8,200 -1,800 Descending Washington Center
08:56PM 37.1158 -76.2769 162° South 342 394 8,100 -1,800 Descending Washington Center
08:56PM 37.0428 -76.3047 197° South 293 337 6,400 -1,800 Descending Washington Center
08:57PM 37.0386 -76.3022 154° Southeast 310 357 6,300 -1,800 Descending Washington Center
08:57PM 36.9694 -76.3303 198° South 280 322 4,600 -1,920 Descending Washington Center
08:58PM 36.9633 -76.3328 198° South 297 342 4,400 -1,500 Descending Washington Center
08:58PM 36.8900 -76.3633 198° South 275 316 3,100 -1,260 Descending Washington Center
08:59PM 36.8486 -76.3239 143° Southeast 220 253 2,100 -900 Descending Washington Center
09:00PM 36.8531 -76.2617 85° East 160 184 1,400 -900 Descending Washington Center
09:01PM 36.8761 -76.2228 53° Northeast 129 148 400 -960 Descending Washington Center